Flag for U.S.A. Weather past 2 weeks in Fort Wayne, Indiana, U.S.A.

Now
20 °F

Scattered clouds.


Feels Like: 9 °F
Forecast: -3 / 21 °F
Wind: 9 mph from Southeast

Location: Fort Wayne International Airport

Current Time: Feb 28, 2015 at 3:21:30 PM

Latest Report: Feb 28, 2015 at 2:54 PM


Visibility: 10 mi

Pressure: 30.69 "Hg

Humidity: 50%

Dew point: 4 °F

Location of Fort WayneLocation

Historic Weather in Fort Wayne — Graph

°F

Fort Wayne temperature yesterday

Maximum temperature yesterday: 18 °F (at 2:54 PM)
Minimum temperature yesterday: -4 °F (at 5:54 AM)
Average temperature yesterday: 7 °F

Past Weeks' High & Low Weather Summary

 TemperatureHumidityPressure
High29 °F (Feb 22, 10:54 AM)92% (Feb 21, 7:54 AM)30.80 "Hg (Feb 21, 7:54 AM)
Low-6 °F (Feb 23, 5:54 AM)38% (Feb 15, 12:54 PM)29.68 "Hg (Feb 14, 8:56 AM)
Average11 °F69%30.23 "Hg
* Reported Feb 13 1:54 PM — Feb 28 1:54 PM, Fort Wayne, Weather by CustomWeather, © 2015

Note: Actual official high and low records may vary slightly from our data, if they occured in-between our weather recording intervals... More about our weather records

Advertising

Fort Wayne weather history for previous 24 hours

 ConditionsComfort  
Time TempWeatherWind HumidityBarometerVisibility
1:54 PM
Sat, Feb 28
20 °FPartly sunny.10 mph50%30.72 "Hg10 mi
12:54 PM18 °FPartly sunny.9 mph54%30.77 "Hg10 mi
11:54 AM17 °FScattered clouds.9 mph59%30.79 "Hg10 mi
10:54 AM14 °FPartly sunny.7 mph64%30.79 "Hg9 mi
9:54 AM11 °FPartly sunny.5 mph67%30.80 "Hg8 mi
8:54 AM7 °FOvercast.No wind83%30.80 "Hg9 mi
7:54 AM2 °FBroken clouds.No wind83%30.79 "Hg9 mi
6:54 AM1 °FPassing clouds.No wind79%30.78 "Hg10 mi
5:54 AM0 °FPartly cloudy.No wind79%30.76 "Hg10 mi
4:54 AM0 °FPassing clouds.No wind83%30.75 "Hg10 mi
3:54 AM0 °FPassing clouds.No wind79%30.74 "Hg10 mi
2:54 AM1 °FPassing clouds.No wind83%30.73 "Hg10 mi
1:54 AM1 °FPassing clouds.No wind83%30.73 "Hg10 mi
12:54 AM3 °FPassing clouds.No wind79%30.73 "Hg10 mi
11:54 PM
Fri, Feb 27
4 °FPassing clouds.No wind76%30.73 "Hg10 mi
10:54 PM5 °FPassing clouds.No wind76%30.71 "Hg10 mi
9:54 PM3 °FPassing clouds.6 mph79%30.72 "Hg10 mi
8:54 PM7 °FPassing clouds.No wind73%30.70 "Hg10 mi
7:54 PM7 °FPassing clouds.3 mph73%30.69 "Hg10 mi
6:54 PM12 °FPassing clouds.5 mph64%30.66 "Hg10 mi
5:54 PM13 °FPassing clouds.6 mph61%30.66 "Hg10 mi
4:54 PM18 °FScattered clouds.3 mph45%30.64 "Hg10 mi
3:54 PM16 °FPartly sunny.5 mph53%30.65 "Hg10 mi
Weather by CustomWeather, © 2015

See weather overviewHow to use our weather pages